Birmingham, AL

5:44 AM CST on February 13, 2016 (GMT -0600)
Birmingham International

Weather History for KBHM - November, 2013

Change the Weather History Date:

Sunday, November 24, 2013

  Actual Average Record
Temperature  
Mean Temperature 36 °F 52 °F  
Max Temperature 46 °F 62 °F 79 °F (1921)
Min Temperature 26 °F 41 °F 13 °F (1970)
Degree Days  
Heating Degree Days 29 14  
Month to date heating degree days 274 244  
Since 1 July heating degree days 371 371  
Moisture  
Dew Point 13 °F    
Average Humidity 45    
Maximum Humidity 69    
Minimum Humidity 21    
Precipitation  
Precipitation 0.00 in 0.18 in 2.13 in (1986)
Month to date precipitation 1.05 3.78  
Year to date precipitation 57.74 48.20  
Snow  
Snow 0.00 in 0.00 in - ()
Month to date snowfall 0.0 0.0  
Since 1 July snowfall 0.0 0.0  
Since 1 September snowfall 0.0 0.0  
Snow Depth -    
Sea Level Pressure  
Sea Level Pressure 30.46 in    
Wind  
Wind Speed 9 mph (NNE)    
Max Wind Speed 17 mph    
Max Gust Speed 23 mph    
Visibility 10 miles    
Events      
T = Trace of Precipitation, MM = Missing Value Source: NWS Daily Summary

Daily Weather History Graph

Daily Weather History Graph

Search for Another Location

Airport or City:

Trip Planner

Search our weather history database for the weather conditions in past years. The results will help you decide how hot, cold, wet, or windy it might be!

Date:

Astronomy

Nov. 24, 2013 Rise Set
Actual Time 6:27 AM CST 4:40 PM CST
Civil Twilight 6:00 AM CST 5:07 PM CST
Nautical Twilight 5:29 AM CST 5:37 PM CST
Astronomical Twilight 5:00 AM CST 6:07 PM CST
Moon 10:56 PM CST (11/24) 11:22 AM CST (11/24)
Length of Visible Light 11h 06m
Length of Day
10h 12m
Waning Gibbous, 60% of the Moon is Illuminated
Nov 24
Waning Gibbous
Nov 25
Last Quarter
Dec 2
New
Dec 9
First Quarter
Dec 17
Full

Hourly Weather History & Observations

Time (CST) Temp. Windchill Dew Point Humidity Pressure Visibility Wind Dir Wind Speed Gust Speed Precip Events Conditions
12:53 AM 33.1 °F 26.1 °F 19.9 °F 59% 30.41 in 10.0 mi North 8.1 mph - N/A   Clear
1:53 AM 30.9 °F 20.7 °F 21.0 °F 67% 30.43 in 10.0 mi North 13.8 mph 18.4 mph N/A   Clear
2:53 AM 30.0 °F 19.5 °F 19.0 °F 64% 30.45 in 10.0 mi North 13.8 mph - N/A   Clear
3:53 AM 28.9 °F 19.8 °F 19.0 °F 67% 30.45 in 10.0 mi North 10.4 mph - N/A   Clear
4:53 AM 27.0 °F 16.1 °F 18.0 °F 69% 30.46 in 10.0 mi North 12.7 mph - N/A   Clear
6:53 AM 27.0 °F 18.0 °F 18.0 °F 69% 30.53 in 10.0 mi North 9.2 mph - N/A   Partly Cloudy
8:53 AM 32.0 °F 22.5 °F 17.1 °F 54% 30.56 in 10.0 mi NNE 12.7 mph - N/A   Scattered Clouds
9:53 AM 36.0 °F 28.5 °F 15.1 °F 43% 30.55 in 10.0 mi NNE 10.4 mph - N/A   Partly Cloudy
10:53 AM 39.9 °F 35.8 °F 9.0 °F 28% 30.52 in 10.0 mi NE 5.8 mph 17.3 mph N/A   Clear
11:53 AM 43.0 °F 37.2 °F 8.1 °F 24% 30.48 in 10.0 mi NNE 10.4 mph - N/A   Clear
12:53 PM 44.1 °F 40.8 °F 9.0 °F 24% 30.45 in 10.0 mi Variable 5.8 mph 16.1 mph N/A   Clear
1:53 PM 46.0 °F 42.5 °F 9.0 °F 22% 30.44 in 10.0 mi NE 6.9 mph 18.4 mph N/A   Clear
2:53 PM 45.0 °F 39.7 °F 9.0 °F 23% 30.44 in 10.0 mi NNE 10.4 mph 18.4 mph N/A   Partly Cloudy
3:53 PM 43.0 °F 36.4 °F 12.0 °F 28% 30.45 in 10.0 mi North 12.7 mph - N/A   Scattered Clouds
4:53 PM 36.0 °F 29.6 °F 14.0 °F 41% 30.44 in 10.0 mi North 8.1 mph - N/A   Partly Cloudy
5:53 PM 37.0 °F 32.4 °F 12.0 °F 36% 30.44 in 10.0 mi NNE 5.8 mph - N/A   Partly Cloudy
6:53 PM 37.0 °F 32.4 °F 10.0 °F 33% 30.46 in 10.0 mi NNE 5.8 mph - N/A   Scattered Clouds
7:53 PM 33.1 °F 30.0 °F 12.9 °F 43% 30.46 in 10.0 mi NNE 3.5 mph - N/A   Partly Cloudy
8:53 PM 35.1 °F 29.3 °F 7.0 °F 31% 30.45 in 10.0 mi ENE 6.9 mph - N/A   Partly Cloudy
9:53 PM 35.1 °F 28.6 °F 6.1 °F 30% 30.44 in 10.0 mi ENE 8.1 mph - N/A   Partly Cloudy
10:53 PM 34.0 °F 28.8 °F 8.1 °F 34% 30.44 in 10.0 mi ENE 5.8 mph - N/A   Clear
11:53 PM 33.1 °F 28.7 °F 8.1 °F 35% 30.45 in 10.0 mi NE 4.6 mph - N/A   Partly Cloudy